Погода в Зандаке

Россия / Чеченская Республика     43°03′07″N   46°27′10″E
темп.,
°C
ветер,
м/с
пор.,
м/с
влажн.,
%
обл.,
%
осадки,
мм/ч
давл.,
гПа
погр.,
м
15 апреля, чт
чт1500:00+4юз33833 0.0 101843
03:00+3юз358656 0.0 1019111
06:00+4юз33781 0.0 101963
09:00+10зсз35552 0.0 1017841
12:00+14ссз34434 0.0 10161573
15:00+13с334774 0.0 10161599
18:00+10ссв116583 0.0 101727
21:00+8ю2271100 0.0 101914
16 апреля, пт
пт1600:00+7ю227262 0.0 101815
03:00+7ю227410 0.0 101913
06:00+7ююв227235 0.0 101918
09:00+13св23525 0.0 10181064
12:00+15св434953 0.2 10171428
15:00+14св335572 1.0 1016956
18:00+11всв117227 1.7 101719
21:00+10ю327211 2.1 101720
17 апреля, сб
сб1700:00+9ююз32704 0.0 101821
03:00+9ю32715 0.0 101724
06:00+9ю226866 0.0 101725
09:00+12ссз3362100 0.0 1019756
12:00+11зсз457599 0.0 1020938
15:00+8сз2388100 0.1 1021592
18:00+7сз1294100 0.2 1022305
21:00+7ссз1296100 0.8 1023256
18 апреля, вс
вс1800:00+7всв1196100 0.4 1022145
03:00+6ссв1298100 0.4 1022149
06:00+7в1296100 0.0 1021152
09:00+9св1186100 0.0 1019373
12:00+12с327499 0.0 1017840
15:00+10ссв228399 0.1 1017506
18:00+9сз1194100 0.6 1019170
21:00+9ююз119398 0.9 102069
19 апреля, пн
пн1900:00+8зсз1197100 0.3 102091
03:00+8сз1299100 1.4 1022126
06:00+9зюз129699 0.5 102273
09:00+9с2294100 0.6 1023341
12:00+12с228295 0.0 1022608
15:00+11ссв228193 0.1 1022571
18:00+10всв1282100 0.0 1021134
21:00+8юв229020 0.0 102117